Weather History for Mount Sterling, KY

Change the Weather History Date:

Friday, March 28, 2014

  Actual Average Record
Temperature  
Mean Temperature 59 °F -  
Max Temperature 68 °F 62 °F 68 °F (2014)
Min Temperature 50 °F 38 °F 28 °F (2013)
Degree Days  
Heating Degree Days 6    
Growing Degree Days 9 (Base 50)    
Moisture  
Dew Point 49 °F    
Average Humidity 74    
Maximum Humidity 94    
Minimum Humidity 31    
Precipitation  
Precipitation 0.13 in - - ()
Sea Level Pressure  
Sea Level Pressure 29.97 in    
Wind  
Wind Speed 14 mph (West)    
Max Wind Speed 22 mph    
Max Gust Speed 33 mph    
Visibility 9 miles    
Events Rain    
Averages and records for this station are not official NWS values.
T = Trace of Precipitation, MM = Missing Value Source: NWS Daily Summary

Daily Weather History Graph

Daily Weather History Graph

Search for Another Location

Airport:

Trip Planner

Search our weather history database for the weather conditions in past years. The results will help you decide how hot, cold, wet, or windy it might be!

Date:

Astronomy

Mar. 28, 2014 Rise Set
Actual Time 7:27 AM EDT 7:55 PM EDT
Civil Twilight 7:00 AM EDT 8:21 PM EDT
Nautical Twilight 6:29 AM EDT 8:52 PM EDT
Astronomical Twilight 5:58 AM EDT 9:24 PM EDT
Moon 5:55 AM EDT (3/28) 5:52 PM EDT (3/28)
Length of Visible Light 13h 21m
Length of Day
12h 28m
Waning Crescent, 6% of the Moon is Illuminated
Mar 28
Waning Crescent
Mar 30
New
Apr 7
First Quarter
Apr 15
Full
Apr 22
Last Quarter

Hourly Weather History & Observations

Time (EDT) Temp. Dew Point Humidity Pressure Visibility Wind Dir Wind Speed Gust Speed Precip Events Conditions
12:15 AM 59.0 °F 28.4 °F 31% 29.91 in 10.0 mi SW 19.6 mph 31.1 mph N/A   Mostly Cloudy
12:35 AM 59.0 °F 32.0 °F 36% 29.93 in 10.0 mi WSW 16.1 mph 29.9 mph N/A   Overcast
12:55 AM 53.6 °F 37.4 °F 54% 29.93 in 10.0 mi SW 20.7 mph 33.4 mph N/A Rain Rain
1:15 AM 51.8 °F 41.0 °F 67% 29.95 in 10.0 mi SW 16.1 mph 31.1 mph N/A Rain Light Rain
1:35 AM 50.0 °F 41.0 °F 71% 29.95 in - SW 16.1 mph 26.5 mph 0.01 in   Overcast
1:55 AM 51.8 °F 41.0 °F 67% 29.95 in 10.0 mi SW 17.3 mph 27.6 mph 0.01 in   Light Drizzle
2:15 AM 50.0 °F 41.0 °F 71% 29.95 in 10.0 mi SW 13.8 mph 27.6 mph 0.01 in Rain Light Rain
2:35 AM 50.0 °F 41.0 °F 71% 29.94 in 10.0 mi SW 17.3 mph 25.3 mph 0.02 in Rain Light Rain
2:55 AM 50.0 °F 41.0 °F 71% 29.92 in - SW 16.1 mph 26.5 mph 0.03 in   Overcast
3:15 AM 50.0 °F 41.0 °F 71% 29.92 in - SW 19.6 mph 25.3 mph N/A   Overcast
3:35 AM 51.8 °F 41.0 °F 67% 29.91 in 10.0 mi SW 18.4 mph 24.2 mph N/A   Overcast
3:55 AM 51.8 °F 42.8 °F 71% 29.90 in 10.0 mi SW 18.4 mph 26.5 mph N/A Rain Rain
4:15 AM 51.8 °F 42.8 °F 71% 29.89 in 10.0 mi SW 15.0 mph 18.4 mph N/A Rain Light Rain
4:35 AM 51.8 °F 44.6 °F 76% 29.89 in - SW 16.1 mph 26.5 mph N/A   Overcast
4:55 AM 51.8 °F 44.6 °F 76% 29.89 in - SW 13.8 mph 20.7 mph N/A   Overcast
5:15 AM 51.8 °F 44.6 °F 76% 29.89 in - SW 12.7 mph 23.0 mph N/A   Overcast
5:35 AM 51.8 °F 46.4 °F 82% 29.90 in - SW 15.0 mph 23.0 mph N/A   Overcast
5:55 AM 51.8 °F 46.4 °F 82% 29.91 in - WSW 11.5 mph 19.6 mph N/A   Overcast
6:15 AM 50.0 °F 46.4 °F 87% 29.91 in - SW 12.7 mph 18.4 mph N/A   Overcast
6:35 AM 51.8 °F 48.2 °F 88% 29.91 in - SW 11.5 mph 19.6 mph N/A   Unknown
6:55 AM 51.8 °F 48.2 °F 88% 29.92 in - SW 13.8 mph 19.6 mph N/A   Unknown
7:15 AM 51.8 °F 50.0 °F 94% 29.93 in 10.0 mi WSW 13.8 mph 21.9 mph 0.01 in Rain Light Rain
7:35 AM 51.8 °F 50.0 °F 94% 29.91 in 10.0 mi SW 18.4 mph 27.6 mph 0.01 in   Overcast
7:55 AM 51.8 °F 50.0 °F 94% 29.90 in 10.0 mi SW 17.3 mph 31.1 mph 0.01 in   Mostly Cloudy
8:15 AM 51.8 °F 50.0 °F 94% 29.92 in 10.0 mi SW 13.8 mph 24.2 mph N/A   Mostly Cloudy
8:35 AM 53.6 °F 50.0 °F 88% 29.92 in 10.0 mi SW 10.4 mph 24.2 mph N/A   Scattered Clouds
8:55 AM 53.6 °F 51.8 °F 94% 29.93 in 10.0 mi SW 16.1 mph 21.9 mph N/A   Scattered Clouds
9:15 AM 53.6 °F 51.8 °F 94% 29.93 in 10.0 mi SW 12.7 mph 24.2 mph N/A   Clear
9:35 AM 55.4 °F 51.8 °F 88% 29.95 in 10.0 mi SW 16.1 mph 25.3 mph N/A   Scattered Clouds
9:55 AM 55.4 °F 51.8 °F 88% 29.95 in 10.0 mi WSW 15.0 mph 24.2 mph N/A   Mostly Cloudy
10:15 AM 57.2 °F 51.8 °F 82% 29.95 in 10.0 mi WSW 18.4 mph 29.9 mph N/A   Overcast
10:35 AM 59.0 °F 51.8 °F 77% 29.96 in 10.0 mi WSW 21.9 mph 32.2 mph N/A   Overcast
10:55 AM 59.0 °F 53.6 °F 82% 29.97 in 10.0 mi WSW 18.4 mph 27.6 mph N/A   Overcast
11:15 AM 59.0 °F 51.8 °F 77% 29.97 in 10.0 mi WSW 18.4 mph 27.6 mph N/A   Overcast
11:35 AM 59.0 °F 53.6 °F 82% 29.98 in 10.0 mi West 13.8 mph 21.9 mph N/A   Overcast
11:55 AM 60.8 °F 53.6 °F 77% 29.98 in 10.0 mi West 13.8 mph 25.3 mph N/A   Overcast
12:15 PM 60.8 °F 53.6 °F 77% 29.99 in 10.0 mi West 11.5 mph 18.4 mph N/A   Overcast
12:35 PM 60.8 °F 53.6 °F 77% 29.98 in 10.0 mi West 10.4 mph 20.7 mph N/A   Overcast
12:55 PM 60.8 °F 53.6 °F 77% 29.99 in 10.0 mi WSW 15.0 mph 20.7 mph N/A   Overcast
1:15 PM 62.6 °F 55.4 °F 77% 29.99 in 10.0 mi West 11.5 mph 20.7 mph N/A   Overcast
1:35 PM 64.4 °F 55.4 °F 73% 29.99 in 10.0 mi West 16.1 mph 26.5 mph N/A   Overcast
1:55 PM 64.4 °F 53.6 °F 68% 30.00 in - West 16.1 mph 23.0 mph N/A   Overcast
2:15 PM 64.4 °F 53.6 °F 68% 30.00 in - West 15.0 mph 24.2 mph N/A   Overcast
2:35 PM 64.4 °F 53.6 °F 68% 30.00 in - West 13.8 mph 25.3 mph N/A   Mostly Cloudy
2:55 PM 66.2 °F 53.6 °F 64% 29.99 in - West 17.3 mph 26.5 mph N/A   Mostly Cloudy
3:15 PM 66.2 °F 53.6 °F 64% 29.99 in 10.0 mi WNW 15.0 mph 27.6 mph N/A   Scattered Clouds
3:35 PM 66.2 °F 53.6 °F 64% 29.99 in 10.0 mi West 11.5 mph 21.9 mph N/A   Mostly Cloudy
3:55 PM 68.0 °F 53.6 °F 60% 29.99 in 10.0 mi WNW 15.0 mph 24.2 mph N/A   Mostly Cloudy
4:15 PM 66.2 °F 53.6 °F 64% 30.00 in 10.0 mi WNW 9.2 mph 21.9 mph N/A   Overcast
4:35 PM 66.2 °F 53.6 °F 64% 30.00 in 10.0 mi WNW 10.4 mph - N/A   Mostly Cloudy
4:55 PM 64.4 °F 53.6 °F 68% 30.01 in 10.0 mi WNW 9.2 mph - N/A   Mostly Cloudy
5:15 PM 66.2 °F 53.6 °F 64% 30.00 in 10.0 mi WNW 9.2 mph - N/A   Mostly Cloudy
5:35 PM 68.0 °F 53.6 °F 60% 30.00 in 10.0 mi WNW 8.1 mph - N/A   Scattered Clouds
5:55 PM 66.2 °F 51.8 °F 60% 30.00 in 10.0 mi NW 9.2 mph - N/A   Mostly Cloudy
6:15 PM 66.2 °F 53.6 °F 64% 30.00 in 10.0 mi North 4.6 mph - N/A   Overcast
6:35 PM 64.4 °F 51.8 °F 64% 30.00 in 0.2 mi NNW 5.8 mph - N/A   Haze
6:55 PM 64.4 °F 53.6 °F 68% 30.01 in 0.2 mi North 4.6 mph - N/A   Haze
7:15 PM 64.4 °F 51.8 °F 64% 30.01 in 0.2 mi North 4.6 mph - N/A   Haze
7:35 PM 62.6 °F 51.8 °F 68% 30.03 in 0.2 mi North 4.6 mph - N/A   Haze
7:55 PM 60.8 °F 51.8 °F 72% 30.03 in 0.2 mi North 5.8 mph - N/A   Haze
8:15 PM 60.8 °F 51.8 °F 72% 30.03 in 10.0 mi NNE 3.5 mph - N/A   Scattered Clouds
8:35 PM 59.0 °F 51.8 °F 77% 30.03 in 0.2 mi North 4.6 mph - N/A   Haze
8:55 PM 59.0 °F 51.8 °F 77% 30.04 in 0.2 mi NNE 3.5 mph - N/A   Haze
9:15 PM 59.0 °F 51.8 °F 77% 30.05 in 0.8 mi NNE 3.5 mph - N/A   Haze
9:35 PM 59.0 °F 51.8 °F 77% 30.05 in 10.0 mi NE 3.5 mph - N/A   Overcast
9:55 PM 57.2 °F 46.4 °F 67% 30.06 in 10.0 mi ENE 16.1 mph - N/A   Overcast
10:15 PM 53.6 °F 44.6 °F 72% 30.07 in 10.0 mi ENE 11.5 mph 18.4 mph N/A   Overcast
10:35 PM 53.6 °F 44.6 °F 72% 30.08 in 10.0 mi ENE 9.2 mph - N/A   Overcast
10:55 PM 51.8 °F 42.8 °F 71% 30.10 in 10.0 mi North 3.5 mph - N/A   Overcast
11:15 PM 50.0 °F 46.4 °F 87% 30.07 in 7.0 mi ENE 8.1 mph - 0.07 in Rain Light Rain
11:35 PM 50.0 °F 44.6 °F 82% 30.08 in 10.0 mi NNE 4.6 mph - 0.08 in   Overcast
11:55 PM 50.0 °F 44.6 °F 82% 30.08 in 10.0 mi NE 4.6 mph - 0.08 in   Scattered Clouds